Torna al catalogo

COSMOS 2251 DEB

AttivoLEO
NORAD 35885·DEBRIS·🇷🇺 Russia

Lanciato Jun 16, 1993 da Plesetsk Cosmodrome

Loading…

Prossimi Passaggi (prossime 24 ore)

TLE

AggiornatoSource: Space-Track

Epoca: Sep 14, 2026, 09:02 UTC

1 35885U 93036ATY 26257.37666644  .00000417  00000-0  14626-3 0  9998
2 35885  74.0282 147.0989 0023846 167.2129 192.9635 14.37914211689778

Traccia COSMOS 2251 DEB in tempo reale con AllMySat

Download on the App Store